#datint,netname,site,siteID,timestamp,IntT,BattV,AirT2,AirT,AirT_Avg,AirT_Max,AirT_Min,RH_Avg,RH_Max,RH_Min,EA_Avg,Td_Avg,Td_Max,Td_Min,WindS_Smp,WindS_Avg,WindD_Avg,WindD_SD,WindS_Max,ETo,ETr,SoilT4,SoilT8,SoilVWC8,SolarW_Avg,wetstate_Avg,wetT_Avg,Precip_accum,Precip_WPG,Precip_TB
15min,AgWx,beryljct,423,24JUL2018:01:00:00,69.0,12.93,64.8,64.3,65.1,67.2,64.3,65,68,59,1.396,53.1,53.8,52.4,0,3.2,153,22,5.3,-0.00000,0.00003,81.1,81.4,17,0,0,62.9,15.51,0.00,0.00
15min,AgWx,beryljct,423,24JUL2018:01:15:00,67.9,12.93,64.7,65.1,64.5,65.9,63.6,67,71,61,1.371,53.4,54.0,51.9,2.696,0.9,152,5.2,2.7,-0.00025,-0.00036,80.8,81.3,17,0,0,61.5,15.51,0.00,0.00
15min,AgWx,beryljct,423,24JUL2018:01:30:00,67.7,12.92,68.4,69.0,67.8,69.3,65.2,58,64,54,1.311,52.3,52.9,51.6,5.678,4.9,325,14,7.4,0.00020,0.00031,80.5,81.2,17,0,0,65.3,15.51,0.00,0.00
15min,AgWx,beryljct,423,24JUL2018:01:45:00,68.1,12.93,70.2,70.3,70.0,71.2,68.6,52,55,48,1.273,51.4,52.2,50.2,5.086,5.5,312,6.8,7.3,0.00031,0.00047,80.2,81.1,17,0,0,67.8,15.51,0.00,0.00
15min,AgWx,beryljct,423,24JUL2018:02:00:00,68.5,12.92,68.3,64.8,68.9,71.9,64.8,55,65,46,1.356,51.7,53.4,49.8,2.696,2.5,266,47,5.9,-0.00001,0.00003,79.9,81.0,17,0,0,66.8,15.50,0.00,0.00
15min,AgWx,beryljct,423,24JUL2018:02:15:00,67.8,12.92,64.1,64.2,64.2,65.6,62.4,65,70,60,1.302,52.1,52.7,51.4,0.965,1.8,152,0.8,2.7,-0.00013,-0.00016,79.7,80.9,17,0,0,62.1,15.50,0.00,0.00
15min,AgWx,beryljct,423,24JUL2018:02:30:00,66.7,12.92,63.4,64.3,63.4,64.7,62.2,67,72,62,1.276,52.3,53.1,51.1,2.28,0.9,151,0.4,2.3,-0.00024,-0.00034,79.4,80.8,17,0,0,60.8,15.50,0.00,0.00
15min,AgWx,beryljct,423,24JUL2018:02:45:00,65.6,12.9,61.1,60.1,61.5,64.9,59.9,74,80,61,1.399,53.1,54.0,51.1,3.398,4.1,141,12,6.2,-0.00001,0.00002,79.1,80.7,17,0,0,59.9,15.51,0.00,0.00
15min,AgWx,beryljct,423,24JUL2018:03:00:00,64.6,12.91,61.3,61.9,61.0,61.9,60.2,73,79,68,1.286,52.5,53.6,51.2,4.669,4.2,178,5.2,5.1,-0.00000,0.00002,78.8,80.5,17,0,0,59.2,15.51,0.00,0.00
15min,AgWx,beryljct,423,24JUL2018:03:15:00,64.1,12.91,63.2,64.6,62.7,64.6,61.8,65,69,59,1.234,50.7,51.4,50.1,4.998,5.3,183,4.2,6.2,0.00013,0.00021,78.6,80.4,17,0,0,60.9,15.51,0.00,0.00
15min,AgWx,beryljct,423,24JUL2018:03:30:00,64.4,12.91,66.3,67.0,65.9,67.0,64.6,56,59,54,1.212,49.9,50.2,49.6,5.327,5.3,179,3.2,5.9,0.00022,0.00034,78.3,80.3,17,0,0,63.7,15.51,0.00,0.00
15min,AgWx,beryljct,423,24JUL2018:03:45:00,65.0,12.9,67.5,67.6,67.3,68.4,65.6,53,58,50,1.199,49.6,50.5,49.0,4.209,4.7,184,5.4,5.7,0.00021,0.00033,78.0,80.2,17,0,0,64.9,15.50,0.00,0.00
15min,AgWx,beryljct,423,24JUL2018:04:00:00,65.1,12.9,64.6,63.3,65.0,67.9,61.0,59,71,51,1.260,50.2,51.6,48.7,0,2.1,145,34,4.8,-0.00007,-0.00007,77.8,79.5,17,0,0,63.1,15.50,0.00,0.00
15min,AgWx,beryljct,423,24JUL2018:04:15:00,64.8,12.9,65.3,66.3,64.9,66.7,63.3,58,64,53,1.209,49.8,50.8,48.8,0.658,0.3,128,0.2,1.1,-0.00034,-0.00052,77.5,79.4,17,0,0,61.5,15.50,0.00,0.00
15min,AgWx,beryljct,423,24JUL2018:04:30:00,64.3,12.9,62.3,62.0,62.7,66.0,61.5,65,68,56,1.244,50.6,51.1,49.9,0,0.6,127,0.3,2.4,-0.00027,-0.00041,77.3,79.8,17,0,0,60.3,15.50,0.00,0.00
15min,AgWx,beryljct,423,24JUL2018:04:45:00,63.4,12.9,60.5,59.5,60.7,61.9,59.5,70,73,66,1.268,50.9,51.7,50.3,0,0.5,31,24,1.6,-0.00029,-0.00043,77.0,79.1,17,0,0,58.4,15.50,0.00,0.00
15min,AgWx,beryljct,423,24JUL2018:05:00:00,62.5,12.9,59.3,59.9,59.1,60.0,58.4,74,77,70,1.235,50.7,51.4,50.1,0,0.1,21,0.0,0.7,-0.00033,-0.00053,76.8,77.9,16,0,0,56.5,15.50,0.00,0.00
15min,AgWx,beryljct,423,24JUL2018:05:15:00,61.8,12.89,60.0,60.2,59.8,60.3,59.0,71,75,69,1.264,50.5,51.1,50.1,1.644,1.6,115,45,4.7,-0.00018,-0.00024,76.5,78.9,17,0,0,56.6,15.50,0.00,0.00
15min,AgWx,beryljct,423,24JUL2018:05:30:00,61.2,12.88,59.2,59.5,59.1,60.2,58.4,75,78,71,1.272,51.1,51.5,50.6,0,0.3,146,0.0,1.6,-0.00030,-0.00046,76.3,78.2,17,0,0,56.6,15.50,0.00,0.00
15min,AgWx,beryljct,423,24JUL2018:05:45:00,60.6,12.88,57.4,56.2,57.7,59.6,56.0,78,82,73,1.222,50.9,51.8,49.8,1.25,1.4,130,29,3.8,0.00009,0.00015,76.1,78.6,17,0,0,55.7,15.50,0.00,0.00
15min,AgWx,beryljct,423,24JUL2018:06:00:00,59.9,12.88,57.4,56.2,57.2,59.3,56.0,76,81,70,1.253,49.8,50.6,48.8,0,1.7,65,7.3,2.7,0.00012,0.00021,75.8,79.0,17,0,0,55.6,15.51,0.00,0.00
15min,AgWx,beryljct,423,24JUL2018:06:15:00,59.3,12.88,57.0,57.4,56.7,57.8,55.9,79,82,75,1.213,50.1,50.6,49.5,1.008,0.6,62,2.2,2.4,0.00005,0.00008,75.6,78.3,17,0,0,54.2,15.51,0.00,0.00
15min,AgWx,beryljct,423,24JUL2018:06:30:00,58.9,12.88,57.8,57.3,57.6,58.2,56.9,75,78,71,1.238,49.7,50.3,48.8,0.723,0.9,68,5.2,1.6,0.00008,0.00014,75.4,78.7,17,2,0,55.0,15.51,0.00,0.00
15min,AgWx,beryljct,423,24JUL2018:06:45:00,58.7,12.89,58.5,59.6,58.1,59.6,57.0,74,78,70,1.223,50.0,50.4,49.6,0,0.3,75,0.4,0.9,0.00010,0.00012,75.1,78.6,17,11,0,56.3,15.51,0.00,0.00
15min,AgWx,beryljct,423,24JUL2018:07:00:00,58.9,12.9,59.4,59.2,59.3,59.8,58.4,72,75,70,1.235,50.2,50.8,49.8,0,0.0,75,0.2,0.4,0.00027,0.00029,74.9,77.4,16,39,0,62.2,15.51,0.00,0.00
15min,AgWx,beryljct,423,24JUL2018:07:15:00,59.4,12.91,60.3,60.6,60.0,60.6,59.2,71,75,68,1.240,50.7,52.1,49.6,0.592,0.1,74,0.1,0.8,0.00046,0.00050,74.7,78.3,17,74,0,70.2,15.51,0.00,0.00
15min,AgWx,beryljct,423,24JUL2018:07:30:00,60.9,12.88,61.5,62.2,61.2,62.4,60.3,72,74,67,1.377,52.1,53.5,50.5,0,0.1,74,0.0,1.5,0.00066,0.00071,74.5,77.7,17,111,0,75.7,15.51,0.00,0.00
15min,AgWx,beryljct,423,24JUL2018:07:45:00,62.7,12.91,61.4,61.7,61.3,62.2,60.9,76,80,72,1.366,53.7,54.8,52.7,0.614,0.9,75,0.1,1.5,0.00092,0.00103,74.3,77.5,17,152,0,79.9,15.50,0.00,0.00
15min,AgWx,beryljct,423,24JUL2018:08:00:00,64.5,12.93,63.5,64.5,63.1,64.5,61.7,71,75,67,1.420,53.7,54.5,53.0,0,0.2,75,0.0,1.0,0.00118,0.00127,74.1,77.9,17,199,0,85.5,15.50,0.00,0.00
15min,AgWx,beryljct,423,24JUL2018:08:15:00,66.7,12.91,65.9,66.9,65.7,66.9,64.6,65,69,61,1.384,53.5,54.5,52.5,0.745,0.6,75,0.1,1.9,0.00152,0.00167,74.0,77.7,17,247,0,92.0,15.50,0.00,0.00
15min,AgWx,beryljct,423,24JUL2018:08:30:00,69.0,12.96,67.7,68.9,67.6,68.9,66.7,58,63,55,1.336,52.3,54.2,51.1,0,0.6,73,0.5,1.8,0.00187,0.00205,73.9,77.6,17,295,0,95.8,15.50,0.00,0.00
15min,AgWx,beryljct,423,24JUL2018:08:45:00,71.5,12.99,70.0,71.1,69.8,71.7,68.7,54,57,49,1.285,52.3,53.2,50.9,1.25,0.4,74,0.4,1.5,0.00221,0.00239,73.7,77.5,17,346,0,101.8,15.49,0.00,0.00
15min,AgWx,beryljct,423,24JUL2018:09:00:00,74.0,13.07,72.2,73.1,72.1,73.1,71.1,47,51,45,1.277,50.8,52.1,49.7,0.548,0.3,68,5.5,1.5,0.00257,0.00278,73.7,76.8,17,395,0,103.5,15.49,0.00,0.00
15min,AgWx,beryljct,423,24JUL2018:09:15:00,76.4,13.19,74.3,75.5,74.2,75.5,72.9,43,46,37,1.152,50.2,51.3,47.7,0.636,0.5,49,0.0,1.8,0.00296,0.00323,73.6,77.2,17,443,0,108.8,15.49,0.00,0.00
15min,AgWx,beryljct,423,24JUL2018:09:30:00,78.8,13.37,76.2,77.1,76.2,77.4,75.3,36,38,33,1.060,47.5,48.5,46.1,2.236,1.1,338,25,2.9,0.00342,0.00381,73.7,77.1,16,493,0,109.5,15.48,0.00,0.00
15min,AgWx,beryljct,423,24JUL2018:09:45:00,81.0,13.56,78.0,78.8,78.0,78.8,77.0,31,35,30,1.005,45.4,47.6,43.8,1.25,1.4,340,9.0,4.5,0.00385,0.00434,73.7,77.0,16,541,0,111.3,15.48,0.00,0.00
15min,AgWx,beryljct,423,24JUL2018:10:00:00,83.1,13.68,79.7,80.5,79.7,80.9,78.8,29,33,26,1.063,44.8,47.6,42.9,3.486,2.5,13,26,4.8,0.00442,0.00514,73.8,76.9,16,588,0,110.8,15.47,0.00,0.00
15min,AgWx,beryljct,423,24JUL2018:10:15:00,84.7,13.82,80.6,81.6,80.7,81.6,80.2,27,30,26,0.983,43.9,45.9,42.6,5.13,2.7,354,34,5.7,0.00480,0.00561,73.9,76.8,16,633,0,111.3,15.47,0.00,0.00
15min,AgWx,beryljct,423,24JUL2018:10:30:00,86.0,13.88,81.7,82.4,81.8,82.4,81.3,26,28,25,1.019,43.7,45.7,42.5,5.393,4.4,22,22,6.9,0.00543,0.00657,74.1,76.7,16,677,0,109.3,15.47,0.00,0.00
15min,AgWx,beryljct,423,24JUL2018:10:45:00,87.0,13.87,82.7,83.8,82.8,83.8,82.3,25,28,24,0.998,43.7,46.0,42.2,5.437,4.4,4.1,23,7.4,0.00577,0.00695,74.4,76.6,16,718,0,110.1,15.47,0.00,0.00
15min,AgWx,beryljct,423,24JUL2018:11:00:00,87.8,13.87,83.7,84.1,83.9,85.1,83.3,25,26,23,0.975,44.0,46.1,43.0,3.924,5.5,0.8,11,8.1,0.00625,0.00765,74.7,76.6,16,757,0,108.6,15.46,0.00,0.00
15min,AgWx,beryljct,423,24JUL2018:11:15:00,88.8,13.79,84.7,84.9,84.9,85.8,84.0,24,25,23,0.975,44.2,46.2,43.2,4.209,4.6,17,34,7.8,0.00642,0.00769,75.0,76.5,16,794,0,113.0,15.46,0.00,0.00
15min,AgWx,beryljct,423,24JUL2018:11:30:00,90.0,13.76,85.9,86.6,86.1,87.5,85.1,23,25,21,0.980,43.9,46.3,42.3,3.749,3.8,21,33,7.9,0.00658,0.00775,75.4,76.5,16,828,0,116.3,15.47,0.00,0.00
15min,AgWx,beryljct,423,24JUL2018:11:45:00,91.4,13.72,86.9,88.1,87.2,88.1,86.4,23,24,21,1.026,44.3,46.2,42.8,1.491,3.2,334,37,7.4,0.00675,0.00783,75.9,76.5,16,858,0,120.2,15.46,0.00,0.00
15min,AgWx,beryljct,423,24JUL2018:12:00:00,92.8,13.71,88.0,88.7,88.3,89.2,87.4,21,23,20,0.960,43.8,46.7,42.4,4.669,3.2,360,55,6.5,0.00699,0.00810,76.4,76.5,16,885,0,122.2,15.47,0.00,0.00
15min,AgWx,beryljct,423,24JUL2018:12:15:00,94.0,13.78,88.8,88.8,89.2,90.2,88.2,21,23,20,0.946,44.3,47.2,42.6,3.113,2.5,295,55,5.2,0.00709,0.00810,77.0,76.5,16,910,0,125.1,15.46,0.00,0.00
15min,AgWx,beryljct,423,24JUL2018:12:30:00,94.9,13.77,89.2,89.8,89.4,90.0,88.7,21,23,20,0.951,44.2,47.3,43.1,0,2.4,276,27,4.7,0.00722,0.00820,77.5,76.6,16,932,0,125.4,15.47,0.00,0.00
15min,AgWx,beryljct,423,24JUL2018:12:45:00,96.0,13.66,90.4,90.9,90.7,91.7,89.8,20,21,19,0.976,43.9,45.5,43.0,4.012,2.5,17,40,5.6,0.00740,0.00841,78.2,76.6,16,949,0,128.2,15.46,0.00,0.00
15min,AgWx,beryljct,423,24JUL2018:13:00:00,96.8,13.29,91.7,91.5,92.0,92.9,90.6,20,22,18,0.951,44.6,47.7,42.8,2.938,3.9,87,31,9.8,0.00786,0.00921,78.8,76.7,16,966,0,124.0,15.46,0.00,0.00
15min,AgWx,beryljct,423,24JUL2018:13:15:00,97.5,13.21,92.1,92.3,92.5,93.3,91.5,19,20,18,0.942,44.2,46.7,42.8,0.723,3.8,68,42,7.7,0.00793,0.00927,79.5,76.8,16,980,0,124.1,15.46,0.00,0.00
15min,AgWx,beryljct,423,24JUL2018:13:30:00,98.0,13.21,93.3,93.5,93.5,94.4,92.4,19,21,18,1.014,45.1,47.7,43.3,5.393,6.4,117,20,10.2,0.00863,0.01054,80.2,76.5,16,1001,0,120.6,15.47,0.00,0.00
15min,AgWx,beryljct,423,24JUL2018:13:45:00,98.0,13.24,93.1,93.2,93.4,94.5,92.0,20,23,18,1.126,46.3,49.0,44.3,6.905,7.4,125,25,11.5,0.00693,0.00889,80.9,77.1,16,702,0,111.2,15.47,0.00,0.00
15min,AgWx,beryljct,423,24JUL2018:14:00:00,97.4,13.24,92.8,92.1,93.1,94.0,92.1,21,24,19,1.206,47.1,49.9,45.1,8.26,6.9,111,19,9.3,0.00596,0.00775,81.7,76.7,16,575,0,107.8,15.47,0.00,0.00
15min,AgWx,beryljct,423,24JUL2018:14:15:00,95.9,13.26,90.6,90.2,90.9,92.0,89.9,25,28,22,1.131,49.9,53.0,46.0,7.125,9.2,146,28,15.1,0.00434,0.00631,82.4,77.4,16,266,0,96.4,15.47,0.00,0.00
15min,AgWx,beryljct,423,24JUL2018:14:30:00,93.8,13.31,88.8,89.3,89.1,90.1,88.5,25,27,21,1.004,48.3,50.5,44.7,6.138,8.4,158,19,14.5,0.00402,0.00582,82.9,77.6,16,255,0,93.7,15.47,0.00,0.00
15min,AgWx,beryljct,423,24JUL2018:14:45:00,91.7,13.35,88.1,88.2,88.3,89.7,86.6,28,34,21,1.444,50.5,55.0,44.6,11.38,8.6,138,13,11.4,0.00428,0.00605,83.3,77.8,16,309,0,91.8,15.48,0.00,0.00
15min,AgWx,beryljct,423,24JUL2018:15:00:00,91.6,13.35,89.2,89.0,89.3,90.9,87.5,27,33,23,1.289,50.9,54.9,47.6,4.757,8.1,136,15,15.6,0.00543,0.00723,83.6,78.1,16,513,0,100.1,15.47,0.00,0.00
15min,AgWx,beryljct,423,24JUL2018:15:15:00,90.1,13.38,84.5,79.8,85.4,89.2,79.4,37,50,26,1.590,55.5,61.3,49.7,13.11,7.2,127,14,15.7,0.00283,0.00412,83.7,78.3,16,173,11,86.0,15.50,0.03,0.01
15min,AgWx,beryljct,423,24JUL2018:15:30:00,85.7,13.39,82.8,84.3,82.5,85.8,79.5,35,47,25,1.404,52.0,57.3,46.2,9.29,12.5,344,83,21.7,0.00337,0.00531,83.8,78.5,16,136,0,80.7,15.51,0.01,0.00
15min,AgWx,beryljct,423,24JUL2018:15:45:00,83.6,13.36,81.0,80.5,81.4,84.0,80.1,41,47,35,1.458,55.0,58.4,52.2,15.61,10.3,327,9.3,16.9,0.00284,0.00434,83.9,78.7,16,139,0,81.2,15.51,0.00,0.00
15min,AgWx,beryljct,423,24JUL2018:16:00:00,80.1,13.41,78.9,77.9,79.1,80.5,77.9,45,51,40,1.588,55.6,58.5,53.3,13.92,11.8,337,24,17.0,0.00276,0.00427,83.8,78.9,16,129,47,73.2,15.56,0.05,0.04
15min,AgWx,beryljct,423,24JUL2018:16:15:00,79.4,13.6,80.5,81.6,80.2,81.7,77.9,41,49,36,1.536,54.3,57.1,51.4,5.174,10.1,358,8.7,14.1,0.00334,0.00484,83.7,79.1,16,245,0,81.8,15.56,0.00,0.00
15min,AgWx,beryljct,423,24JUL2018:16:30:00,81.3,13.5,84.1,84.2,83.9,85.5,81.1,38,48,32,1.638,55.3,59.8,50.8,4.45,5.0,16,21,9.6,0.00409,0.00512,83.4,79.3,16,486,0,92.7,15.56,0.00,0.00
15min,AgWx,beryljct,423,24JUL2018:16:45:00,84.3,13.44,85.3,86.0,85.3,86.0,84.2,38,46,31,1.549,57.0,62.0,51.2,0,3.4,45,12,6.9,0.00349,0.00425,83.2,79.4,16,415,0,98.1,15.55,0.00,0.00
15min,AgWx,beryljct,423,24JUL2018:17:00:00,85.6,13.41,84.6,83.3,84.9,86.6,83.3,43,51,35,1.744,59.9,65.4,55.3,4.384,3.3,103,30,8.2,0.00188,0.00248,83.0,79.5,16,163,0,92.1,15.56,0.00,0.00
15min,AgWx,beryljct,423,24JUL2018:17:15:00,85.4,13.38,83.4,81.9,83.6,84.6,81.9,41,54,34,2.021,57.3,63.8,53.3,1.03,4.3,75,13,7.7,0.00175,0.00249,82.9,79.6,16,112,0,86.1,15.56,0.00,0.00
15min,AgWx,beryljct,423,24JUL2018:17:30:00,84.9,13.31,82.7,84.6,82.5,84.6,81.5,49,56,36,1.473,61.4,64.5,55.0,6.423,3.9,40,20,7.0,0.00165,0.00224,82.8,79.7,16,141,0,86.3,15.56,0.00,0.00
15min,AgWx,beryljct,423,24JUL2018:17:45:00,84.7,13.4,84.3,83.6,84.4,85.2,83.1,40,49,35,1.671,57.4,62.1,54.7,2.653,4.3,2.8,9.6,6.8,0.00179,0.00256,82.7,79.8,16,125,0,85.4,15.56,0.00,0.00
15min,AgWx,beryljct,423,24JUL2018:18:00:00,84.3,13.34,83.0,82.7,83.1,84.3,82.3,44,51,36,1.621,58.8,63.1,54.5,6.796,4.3,77,41,8.8,0.00174,0.00245,82.5,79.8,16,147,0,86.5,15.56,0.00,0.00
15min,AgWx,beryljct,423,24JUL2018:18:15:00,84.1,13.3,82.9,83.3,82.9,83.3,82.6,41,44,38,1.467,56.7,58.6,54.7,3.288,4.7,79,32,7.9,0.00158,0.00237,82.3,79.9,16,97,0,85.0,15.56,0.00,0.00
15min,AgWx,beryljct,423,24JUL2018:18:30:00,83.5,13.22,80.9,80.9,81.3,83.8,80.2,49,57,37,1.798,60.3,63.7,54.8,6.423,6.3,308,16,8.4,0.00149,0.00234,82.2,79.9,16,62,0,82.7,15.56,0.00,0.00
15min,AgWx,beryljct,423,24JUL2018:18:45:00,82.6,13.19,79.6,78.9,79.9,80.8,78.9,49,55,40,1.544,58.9,62.3,53.7,12.04,10.5,309,8.8,18.0,0.00185,0.00309,82.0,79.9,16,34,0,80.0,15.56,0.00,0.00
15min,AgWx,beryljct,423,24JUL2018:19:00:00,81.0,13.17,76.8,76.5,77.2,78.9,76.1,52,56,44,1.688,58.2,59.5,55.3,12.01,9.7,327,15,16.9,0.00155,0.00261,81.8,79.9,17,23,0,77.1,15.56,0.00,0.00
15min,AgWx,beryljct,423,24JUL2018:19:15:00,78.9,13.14,75.7,73.5,76.1,77.5,73.1,54,65,48,1.640,58.1,61.1,56.0,12.58,13.9,360,12,18.8,0.00188,0.00321,81.5,79.9,17,21,39,72.8,15.58,0.02,0.02
15min,AgWx,beryljct,423,24JUL2018:19:30:00,75.7,13.14,73.1,72.8,73.2,74.9,71.4,60,70,52,1.727,58.3,61.5,56.0,7.432,10.6,320,30,15.5,0.00109,0.00199,81.3,79.9,17,25,8,67.2,15.58,0.00,0.00
15min,AgWx,beryljct,423,24JUL2018:19:45:00,74.1,13.13,72.1,71.6,72.2,72.8,71.6,64,67,60,1.778,59.3,60.3,58.3,5.371,7.4,296,11,10.7,0.00041,0.00098,81.0,79.9,17,16,0,68.5,15.58,0.00,0.00
15min,AgWx,beryljct,423,24JUL2018:20:00:00,72.8,13.13,71.4,72.2,71.3,72.2,71.0,68,70,63,1.694,60.2,60.9,58.4,10.94,7.7,320,15,12.2,0.00049,0.00065,80.7,79.9,17,17,1,67.1,15.59,0.00,0.00
15min,AgWx,beryljct,423,24JUL2018:20:15:00,72.8,13.11,74.0,74.0,73.7,74.6,72.2,57,62,53,1.540,57.5,58.9,56.2,7.563,6.4,4.5,8.7,10.2,0.00061,0.00084,80.4,79.9,17,15,0,71.3,15.59,0.00,0.00
15min,AgWx,beryljct,423,24JUL2018:20:30:00,73.8,13.11,75.6,75.4,75.4,76.9,73.7,49,57,42,1.428,54.6,58.0,52.1,8.42,8.3,5.5,8.7,10.8,0.00086,0.00115,80.1,79.9,17,12,0,75.0,15.59,0.00,0.00
15min,AgWx,beryljct,423,24JUL2018:20:45:00,74.9,13.1,76.0,76.4,75.8,76.4,75.3,46,50,41,1.270,53.6,55.5,51.0,8.42,7.8,4.5,9.9,10.9,0.00088,0.00118,79.9,79.8,17,11,0,75.5,15.58,0.00,0.00
15min,AgWx,beryljct,423,24JUL2018:21:00:00,75.4,13.08,74.4,73.1,74.8,77.7,73.1,49,56,39,1.560,54.5,56.6,50.7,7.453,4.0,43,26,9.3,0.00051,0.00075,79.6,79.8,17,2,0,74.3,15.58,0.00,0.00
15min,AgWx,beryljct,423,24JUL2018:21:15:00,74.9,13.07,71.9,72.1,72.0,73.0,71.3,60,63,57,1.615,57.5,58.3,56.7,7.147,7.7,104,6.0,12.5,0.00057,0.00077,79.3,79.7,17,0,0,71.5,15.58,0.00,0.00
15min,AgWx,beryljct,423,24JUL2018:21:30:00,74.3,13.08,72.5,73.1,72.3,73.3,71.6,58,63,53,1.506,56.8,58.4,55.3,9.27,8.8,87,14,11.5,0.00066,0.00086,79.1,79.6,17,0,0,71.5,15.58,0.00,0.00
15min,AgWx,beryljct,423,24JUL2018:21:45:00,73.7,13.08,72.0,71.7,72.1,73.2,71.3,57,60,54,1.547,56.3,56.8,55.7,3.749,5.1,98,29,10.5,0.00048,0.00067,78.8,79.6,17,0,0,70.3,15.58,0.00,0.00
15min,AgWx,beryljct,423,24JUL2018:22:00:00,72.7,13.07,69.4,69.2,69.8,71.7,68.9,64,67,58,1.625,57.2,57.7,56.4,1.096,3.7,157,8.7,5.1,0.00029,0.00043,78.6,79.5,17,0,0,67.8,15.58,0.00,0.00
15min,AgWx,beryljct,423,24JUL2018:22:15:00,71.5,13.07,69.7,71.0,69.4,71.0,68.7,65,68,59,1.535,57.0,57.8,56.0,2.061,2.9,280,36,5.0,0.00024,0.00036,78.3,79.4,17,0,0,67.2,15.58,0.00,0.00
15min,AgWx,beryljct,423,24JUL2018:22:30:00,70.7,13.04,68.1,67.4,68.5,71.1,66.3,68,75,59,1.631,57.3,58.5,56.2,4.099,3.5,309,26,6.5,0.00025,0.00037,78.0,79.3,17,0,0,66.6,15.58,0.00,0.00
15min,AgWx,beryljct,423,24JUL2018:22:45:00,69.9,13.06,68.4,68.9,68.2,68.9,67.6,70,72,67,1.618,57.9,58.4,57.3,4.275,5.3,257,4.7,6.3,0.00032,0.00044,77.8,79.2,17,0,0,66.8,15.59,0.00,0.00
15min,AgWx,beryljct,423,24JUL2018:23:00:00,69.7,13.04,69.0,68.4,69.0,69.6,68.3,66,70,63,1.648,57.1,58.1,56.3,1.447,3.4,244,16,5.3,0.00026,0.00039,77.5,79.1,17,0,0,67.2,15.59,0.00,0.00
15min,AgWx,beryljct,423,24JUL2018:23:15:00,69.4,13.03,67.8,68.0,67.7,69.2,66.6,69,74,62,1.580,57.1,58.6,55.6,3.135,1.8,183,47,5.2,0.00012,0.00020,77.3,79.0,17,0,0,66.1,15.59,0.00,0.00
15min,AgWx,beryljct,423,24JUL2018:23:30:00,69.3,13.03,68.1,69.3,67.8,69.3,67.1,68,72,62,1.532,57.0,57.8,55.8,2.477,3.6,118,20,4.8,0.00024,0.00036,77.0,78.9,17,0,0,67.0,15.59,0.00,0.00
15min,AgWx,beryljct,423,24JUL2018:23:45:00,69.2,13.03,68.0,69.0,68.0,69.3,67.0,69,74,63,1.552,57.5,58.8,56.1,0,0.8,161,24,2.9,0.00004,0.00007,76.8,78.8,17,0,0,67.0,15.59,0.00,0.00
15min,AgWx,beryljct,423,25JUL2018:00:00:00,69.3,13.01,69.2,69.0,69.1,69.4,68.8,65,68,61,1.640,56.8,58.0,55.4,0,1.0,177,0.1,2.3,0.00007,0.00013,76.6,78.7,17,0,0,67.8,15.59,0.00,0.00
15min,AgWx,beryljct,423,25JUL2018:00:15:00,69.3,13.02,68.0,66.9,68.2,69.4,66.7,71,78,65,1.689,58.3,59.6,57.0,2.061,1.4,118,57,3.8,0.00009,0.00015,76.4,78.6,17,0,0,67.6,15.59,0.00,0.00
15min,AgWx,beryljct,423,25JUL2018:00:30:00,69.1,13.01,66.6,66.4,66.6,67.5,66.0,77,79,73,1.725,59.1,59.7,58.3,2.455,2.2,356,24,3.5,0.00011,0.00017,76.2,78.5,17,0,0,66.1,15.59,0.00,0.00
15min,AgWx,beryljct,423,25JUL2018:00:45:00,68.7,13.01,66.8,66.0,66.8,67.4,66.0,76,83,72,1.816,59.1,60.9,58.1,1.995,0.6,345,0.8,2.3,0.00001,0.00002,76.0,77.9,17,0,0,65.6,15.59,0.00,0.00
15min,AgWx,bigpiney,439,24JUL2018:01:00:00,51.3,12.81,48.9,47.3,45.8,47.3,44.8,76,80,73,0.835,38.7,40.2,37.6,3.551,1.9,248,20,3.6,-0.00007,-0.00008,56.7,55.4,53,0,0,0.0,.,0.00,0.00
15min,AgWx,bigpiney,439,24JUL2018:01:15:00,50.8,12.81,47.2,45.8,46.0,48.6,44.5,75,79,67,0.794,38.5,39.8,37.7,1.206,2.1,281,79,6.7,-0.00006,-0.00006,56.7,55.4,53,0,0,0.0,.,0.00,0.00
15min,AgWx,bigpiney,439,24JUL2018:01:30:00,50.2,12.8,49.2,48.8,47.6,48.9,45.9,68,75,64,0.752,37.7,38.6,37.2,0,0.4,161,24,1.4,-0.00017,-0.00025,56.6,55.4,53,0,0,0.0,.,0.00,0.00
15min,AgWx,bigpiney,439,24JUL2018:01:45:00,49.7,12.79,46.8,46.6,47.6,49.4,45.3,68,75,61,0.801,37.3,38.8,36.5,1.863,1.4,238,4.1,3.1,-0.00008,-0.00010,56.6,55.3,53,0,0,0.0,.,0.00,0.00
15min,AgWx,bigpiney,439,24JUL2018:02:00:00,49.2,12.78,49.3,48.1,46.6,48.2,45.1,71,76,66,0.769,37.6,38.8,36.8,0,0.3,231,0.1,1.8,-0.00018,-0.00028,56.5,55.4,53,0,0,0.0,.,0.00,0.00
15min,AgWx,bigpiney,439,24JUL2018:02:15:00,48.7,12.77,48.0,47.3,46.4,48.2,45.1,77,82,66,0.782,39.5,41.4,37.5,3.902,2.3,250,8.0,4.0,-0.00006,-0.00006,56.4,55.3,53,0,0,0.0,.,0.00,0.00
15min,AgWx,bigpiney,439,24JUL2018:02:30:00,48.4,12.77,47.9,47.5,46.7,47.6,46.3,69,72,67,0.767,37.2,38.3,36.2,2.894,3.6,240,5.2,4.6,0.00003,0.00006,56.4,55.3,53,0,0,0.0,.,0.00,0.00
15min,AgWx,bigpiney,439,24JUL2018:02:45:00,48.3,12.75,44.4,44.7,47.0,48.1,44.7,70,75,68,0.753,37.6,38.2,36.7,1.885,2.7,220,26,4.7,-0.00001,0.00001,56.3,55.3,53,0,0,0.0,.,0.00,0.00
15min,AgWx,bigpiney,439,24JUL2018:03:00:00,48.3,12.75,45.3,44.8,44.7,45.2,44.3,76,79,73,0.751,37.5,38.8,36.7,4.56,3.9,251,32,5.2,0.00001,0.00003,56.2,55.3,53,0,0,0.0,.,0.00,0.00
15min,AgWx,bigpiney,439,24JUL2018:03:15:00,48.1,12.72,46.0,45.5,46.1,47.4,44.8,70,74,65,0.715,36.7,37.2,35.9,0.395,2.6,299,51,4.5,-0.00001,0.00001,56.1,55.3,53,0,0,0.0,.,0.00,0.00
15min,AgWx,bigpiney,439,24JUL2018:03:30:00,47.9,12.73,42.6,42.5,43.8,46.3,42.5,75,79,66,0.734,36.5,37.2,35.6,3.179,2.0,208,21,3.3,-0.00006,-0.00007,56.0,55.3,53,0,0,0.0,.,0.00,0.00
15min,AgWx,bigpiney,439,24JUL2018:03:45:00,47.5,12.72,48.7,46.7,43.4,46.7,42.2,81,83,70,0.758,38.0,39.4,36.7,1.271,2.2,248,9.9,3.2,-0.00007,-0.00009,56.0,55.3,53,0,0,0.0,.,0.00,0.00
15min,AgWx,bigpiney,439,24JUL2018:04:00:00,47.1,12.7,46.5,46.4,48.9,50.1,46.3,60,69,56,0.731,35.6,37.3,34.7,1.666,0.5,258,26,3.3,-0.00016,-0.00024,55.9,55.3,53,0,0,0.0,.,0.00,0.00
15min,AgWx,bigpiney,439,24JUL2018:04:15:00,46.6,12.69,42.7,42.8,43.6,46.4,42.7,77,81,68,0.753,36.7,37.4,36.0,2.74,1.8,197,6.1,2.7,-0.00008,-0.00010,55.8,55.2,53,0,0,0.0,.,0.00,0.00
15min,AgWx,bigpiney,439,24JUL2018:04:30:00,46.0,12.69,39.6,39.7,42.8,45.8,39.7,78,84,69,0.698,36.3,37.2,35.3,3.069,1.8,206,2.8,3.3,-0.00008,-0.00009,55.8,55.2,53,0,0,0.0,.,0.00,0.00
15min,AgWx,bigpiney,439,24JUL2018:04:45:00,45.4,12.69,39.5,39.6,40.2,40.8,39.6,86,87,84,0.703,36.2,37.2,35.3,2.477,2.3,204,5.5,3.1,-0.00008,-0.00010,55.7,55.2,53,0,0,0.0,.,0.00,0.00
15min,AgWx,bigpiney,439,24JUL2018:05:00:00,44.7,12.68,44.7,44.1,40.9,44.1,39.1,86,91,73,0.719,37.0,38.7,35.2,2.324,2.2,262,27,3.1,-0.00008,-0.00010,55.6,55.2,53,0,0,0.0,.,0.00,0.00
15min,AgWx,bigpiney,439,24JUL2018:05:15:00,44.5,12.67,46.4,45.6,45.1,45.8,44.1,69,73,66,0.696,35.6,36.0,35.2,1.447,2.5,302,6.7,3.0,-0.00002,-0.00001,55.5,55.1,53,0,0,0.0,.,0.00,0.00
15min,AgWx,bigpiney,439,24JUL2018:05:30:00,44.3,12.65,43.5,40.8,43.5,46.6,40.3,73,86,62,0.734,35.3,36.6,34.3,0,0.8,241,84,2.0,-0.00013,-0.00018,55.4,55.1,53,0,0,0.0,.,0.00,0.00
15min,AgWx,bigpiney,439,24JUL2018:05:45:00,44.0,12.63,40.6,40.9,41.6,42.8,40.5,80,84,75,0.718,35.7,36.8,35.0,1.074,1.0,230,68,2.7,-0.00012,-0.00017,55.3,55.1,53,0,0,0.0,.,0.00,0.00
15min,AgWx,bigpiney,439,24JUL2018:06:00:00,43.6,12.63,39.8,42.1,41.3,43.1,40.3,83,87,75,0.696,36.6,37.3,35.3,1.118,1.1,251,8.7,2.3,-0.00011,-0.00016,55.3,55.0,53,3,0,0.0,.,0.00,0.00
15min,AgWx,bigpiney,439,24JUL2018:06:15:00,43.2,12.63,41.3,42.5,42.5,44.8,40.5,76,84,68,0.691,35.4,36.2,34.7,2.368,1.7,239,3.7,2.4,-0.00006,-0.00007,55.2,55.0,53,9,0,0.0,.,0.00,0.00
15min,AgWx,bigpiney,439,24JUL2018:06:30:00,42.9,12.63,39.2,38.9,39.8,42.4,38.6,83,87,75,0.693,34.9,35.5,34.4,2.017,2.5,217,4.5,3.5,-0.00023,-0.00018,55.1,55.0,53,19,0,0.0,.,0.00,0.00
15min,AgWx,bigpiney,439,24JUL2018:06:45:00,42.7,12.66,42.7,41.9,40.0,41.9,38.7,87,89,84,0.763,36.3,37.6,35.1,1.798,2.1,187,15,2.9,-0.00012,-0.00009,55.0,54.9,53,61,0,0.0,.,0.00,0.00
15min,AgWx,bigpiney,439,24JUL2018:07:00:00,43.2,12.69,44.3,43.7,42.8,43.7,42.1,85,86,84,0.826,38.7,39.6,37.7,1.732,1.3,171,6.4,2.0,0.00007,0.00010,54.9,54.9,53,102,0,0.0,.,0.00,0.00
15min,AgWx,bigpiney,439,24JUL2018:07:15:00,44.3,12.69,46.5,46.3,45.1,46.3,43.7,81,85,74,0.808,39.5,40.5,38.2,0,0.2,191,4.5,1.8,0.00018,0.00020,54.8,54.9,53,125,0,0.0,.,0.00,0.00
15min,AgWx,bigpiney,439,24JUL2018:07:30:00,45.7,12.67,46.4,46.2,46.7,47.2,46.2,76,85,72,0.898,39.4,42.2,37.9,0.855,0.5,124,31,2.3,0.00040,0.00045,54.7,54.9,53,131,0,0.0,.,0.00,0.00
15min,AgWx,bigpiney,439,24JUL2018:07:45:00,46.9,12.68,48.0,47.5,46.7,47.5,46.2,83,86,76,0.849,41.6,42.6,40.2,1.337,1.3,262,29,2.4,0.00050,0.00057,54.7,54.8,53,117,0,0.0,.,0.00,0.00
15min,AgWx,bigpiney,439,24JUL2018:08:00:00,48.5,12.78,50.7,50.3,49.0,50.4,47.5,76,79,72,0.894,41.8,43.0,40.3,0.811,1.3,326,20,2.6,0.00108,0.00120,54.6,54.8,53,274,0,0.0,.,0.00,0.00
15min,AgWx,bigpiney,439,24JUL2018:08:15:00,50.7,12.84,52.4,52.6,51.5,52.6,50.3,71,73,68,0.928,42.3,43.4,41.1,1.841,1.4,5.9,12,2.7,0.00136,0.00152,54.5,54.8,53,307,0,0.0,.,0.00,0.00
15min,AgWx,bigpiney,439,24JUL2018:08:30:00,53.1,13.01,54.0,54.2,53.5,54.3,52.5,66,70,63,0.923,42.5,43.9,41.2,2.587,2.2,14,18,3.5,0.00178,0.00202,54.4,54.7,53,369,0,0.0,.,0.00,0.00
15min,AgWx,bigpiney,439,24JUL2018:08:45:00,55.2,13.32,56.9,56.5,55.3,56.8,54.0,62,65,58,0.929,42.5,44.8,41.2,1.03,1.6,46,20,3.0,0.00209,0.00233,54.3,54.7,53,414,0,0.0,.,0.00,0.00